Temp
-14 -14 -14 -15 -14 -14 -15 -15 -15 -15 -15 -14 -15 -15 -15 -15 -15 -15 -16 -16 -16 -16 -16 -16 -16 -17 -17
-15 -15 -14 -14 -14 -14 -14 -15 -15 -14 -14 -15 -15 -15 -15 -15 -16 -16 -16 -16 -16 -16 -16 -17 -17 -17 -17
-15 -15 -15 -15 -15 -15 -15 -15 -15 -14 -14 -15 -15 -15 -16 -16 -16 -16 -16 -16 -17 -17 -17 -18 -18 -18 -18
-15 -15 -15 -15 -15 -15 -15 -15 -15 -15 -15 -16 -16 -16 -16 -16 -16 -17 -17 -17 -18 -18 -18 -18 -18 -18 -19
-15 -15 -15 -15 -15 -15 -15 -16 -15 -15 -16 -15 -15 -16 -16 -17 -17 -17 -18 -18 -18 -18 -18 -19 -19 -19 -20
-16 -16 -15 -15 -15 -15 -15 -16 -16 -16 -16 -16 -17 -17 -17 -17 -18 -18 -18 -18 -19 -19 -19 -19 -20 -20 -20
-16 -16 -16 -16 -16 -16 -16 -16 -17 -16 -17 -17 -17 -17 -17 -18 -18 -18 -18 -18 -19 -19 -19 -20 -20 -20 -21
-17 -17 -17 -17 -16 -16 -16 -17 -17 -17 -17 -17 -18 -18 -18 -18 -18 -18 -19 -19 -19 -20 -20 -20 -21 -22 -22
-18 -18 -18 -18 -17 -17 -17 -17 -17 -17 -17 -18 -18 -18 -18 -19 -19 -19 -19 -19 -20 -20 -21 -21 -21 -22 -22
-18 -18 -17 -17 -17 -18 -17 -17 -17 -18 -18 -19 -19 -19 -19 -19 -20 -20 -20 -20 -20 -21 -21 -22 -22 -23 -23
-18 -18 -18 -18 -18 -18 -18 -18 -19 -19 -19 -19 -19 -20 -20 -20 -20 -20 -21 -21 -21 -22 -22 -22 -23 -24 -24
-18 -18 -18 -18 -18 -19 -19 -19 -20 -20 -20 -20 -20 -20 -20 -20 -21 -21 -21 -22 -22 -23 -23 -24 -24 -24 -25
-19 -19 -19 -19 -19 -20 -20 -20 -20 -20 -20 -20 -20 -20 -21 -21 -22 -23 -23 -23 -24 -24 -24 -25 -25 -25 -25
-20 -20 -20 -20 -20 -20 -20 -20 -20 -20 -20 -21 -21 -21 -21 -22 -23 -23 -24 -25 -25 -25 -25 -25 -26 -26 -26
-20 -20 -20 -20 -20 -20 -21 -21 -21 -21 -21 -21 -21 -21 -22 -22 -23 -24 -25 -26 -25 -26 -26 -26 -27 -27 -27
-20 -21 -21 -21 -21 -21 -21 -21 -22 -22 -22 -22 -22 -22 -23 -23 -24 -25 -26 -26 -26 -26 -26 -27 -27 -28 -28
-21 -21 -21 -21 -21 -21 -22 -22 -22 -22 -22 -22 -23 -23 -23 -24 -25 -26 -26 -26 -26 -27 -27 -28 -28 -28 -28
Height
5803 5803 5803 5803 5801 5800 5800 5800 5799 5797 5795 5794 5791 5789 5787 5785 5783 5780 5777 5773 5769 5765 5761 5757 5752 5748 5744
5793 5793 5792 5793 5791 5790 5789 5790 5788 5787 5785 5783 5780 5779 5776 5774 5771 5767 5764 5761 5757 5753 5748 5743 5739 5735 5730
5782 5782 5781 5780 5780 5780 5779 5778 5777 5775 5774 5771 5768 5766 5764 5761 5758 5755 5751 5747 5744 5740 5735 5730 5725 5721 5715
5769 5769 5770 5769 5768 5768 5767 5766 5764 5763 5760 5758 5755 5753 5751 5748 5745 5742 5738 5734 5730 5726 5720 5714 5709 5704 5699
5756 5756 5757 5756 5755 5754 5754 5752 5751 5749 5747 5744 5742 5740 5737 5734 5731 5726 5723 5720 5716 5711 5705 5699 5694 5688 5682
5743 5743 5742 5741 5741 5740 5740 5739 5737 5736 5733 5732 5729 5725 5722 5718 5714 5712 5708 5705 5700 5693 5688 5683 5676 5670 5665
5728 5728 5728 5726 5726 5726 5725 5724 5722 5721 5719 5716 5713 5710 5706 5702 5699 5696 5693 5688 5683 5676 5672 5665 5660 5654 5649
5711 5712 5713 5713 5713 5711 5711 5710 5708 5706 5704 5701 5698 5695 5692 5688 5684 5681 5677 5671 5667 5661 5655 5651 5645 5638 5634
5697 5697 5698 5699 5699 5697 5696 5695 5693 5691 5689 5687 5683 5680 5677 5673 5668 5664 5660 5655 5651 5645 5640 5635 5630 5624 5617
5683 5683 5684 5683 5683 5682 5680 5678 5677 5674 5672 5670 5667 5664 5661 5657 5652 5647 5644 5639 5635 5630 5625 5620 5615 5608 5601
5667 5668 5668 5667 5666 5665 5663 5662 5660 5658 5656 5654 5650 5647 5645 5641 5636 5632 5627 5623 5619 5614 5609 5604 5598 5593 5587
5651 5651 5650 5650 5649 5649 5647 5646 5644 5643 5640 5638 5635 5632 5628 5624 5620 5615 5612 5607 5603 5598 5593 5588 5582 5577 5572
5633 5634 5634 5633 5632 5631 5630 5629 5628 5626 5624 5621 5619 5615 5611 5608 5604 5598 5595 5591 5587 5583 5578 5571 5565 5560 5555
5616 5616 5616 5616 5615 5615 5614 5613 5612 5610 5607 5605 5603 5601 5596 5592 5587 5581 5578 5575 5570 5567 5562 5554 5548 5542 5537
5599 5599 5599 5599 5599 5598 5598 5596 5594 5592 5591 5589 5586 5583 5579 5575 5572 5566 5562 5559 5554 5549 5546 5541 5532 5524 5518
5581 5581 5582 5581 5581 5581 5580 5579 5578 5576 5574 5573 5571 5567 5565 5560 5556 5550 5546 5542 5538 5534 5528 5525 5518 5506 5500
5564 5564 5564 5565 5565 5565 5564 5562 5561 5560 5557 5556 5552 5550 5549 5546 5541 5536 5530 5525 5522 5517 5510 5505 5502 5493 5485
Wind_Speed
42 42 41 43 46 46 43 44 43 46 47 48 50 50 48 47 49 52 54 56 57 57 58 58 58 58 61
50 46 45 47 45 43 44 44 46 48 49 50 49 49 50 51 54 55 57 57 59 60 60 60 61 61 65
46 50 48 43 44 46 47 49 53 53 51 50 52 52 53 54 56 58 58 60 62 61 61 63 65 65 68
52 52 52 48 47 50 51 53 56 55 55 54 54 54 56 57 58 60 62 62 65 65 63 64 64 67 71
51 48 52 50 50 54 56 59 60 61 62 61 60 59 59 62 65 63 65 68 65 63 64 64 67 70 69
50 51 50 52 50 51 55 57 57 59 59 59 59 62 64 66 64 64 65 62 61 64 68 70 71 68 67
55 53 54 53 54 55 59 56 56 56 59 62 64 65 67 63 60 61 64 65 68 70 71 69 67 67 68
49 50 46 51 58 60 58 58 59 60 60 57 58 57 60 63 63 67 67 71 71 71 68 66 65 66 68
50 51 52 53 59 62 61 60 62 63 60 60 60 63 64 64 67 67 67 67 64 65 66 68 67 66 67
51 52 56 59 60 62 63 63 65 67 60 58 61 61 64 65 64 64 64 64 66 67 66 66 66 67 67
56 57 59 61 61 62 64 63 61 62 60 59 61 63 63 67 67 66 63 63 63 63 64 67 66 66 66
60 58 58 58 59 59 59 59 60 62 60 62 62 67 65 62 61 60 61 62 62 65 65 64 66 65 65
56 54 54 56 56 57 56 57 61 65 61 60 60 62 61 59 61 61 61 61 60 61 63 64 65 65 68
58 56 56 55 56 56 57 59 60 61 61 59 59 60 60 58 58 61 60 58 60 63 64 65 67 68 70
64 60 58 59 59 59 60 59 60 59 59 60 61 57 57 60 59 60 60 62 64 64 65 66 67 70 70
64 63 64 62 59 59 58 59 58 58 59 60 61 59 57 58 59 60 61 64 66 66 67 66 67 69 70
67 66 62 60 58 59 56 55 57 60 62 63 61 59 58 57 60 61 63 67 67 67 67 68 68 69 70
Wind_Direction
269 273 271 281 280 277 274 276 278 283 287 287 286 288 286 285 289 291 292 295 296 299 302 302 297 298 300
269 271 272 279 276 272 273 272 281 286 288 286 284 284 283 285 288 289 292 295 296 298 299 298 296 297 300
269 266 276 272 269 272 272 272 279 282 283 280 279 280 281 284 286 287 288 293 293 295 296 296 296 296 299
267 267 268 269 271 272 271 275 279 280 279 279 279 279 280 284 287 288 289 292 293 296 295 295 295 296 296
261 266 265 269 271 270 273 278 281 281 281 280 280 281 283 285 286 288 290 290 291 294 296 294 294 296 297
264 264 269 270 277 276 276 279 279 279 280 282 282 282 284 285 288 288 287 288 292 296 297 296 298 298 298
273 271 272 277 277 278 275 278 278 279 283 282 282 282 283 285 287 287 287 294 292 295 295 295 296 297 298
274 277 274 268 272 273 274 277 276 279 279 276 279 282 284 287 286 286 287 290 291 292 294 295 296 295 296
270 268 269 268 270 274 275 274 275 279 280 284 282 279 281 284 287 285 289 291 292 292 292 293 295 296 296
268 270 267 267 271 271 273 276 280 284 286 281 280 280 281 285 286 285 289 289 290 291 293 294 293 294 293
272 274 274 275 275 276 278 279 278 280 283 281 277 277 285 285 286 289 290 290 290 290 292 293 292 290 292
271 271 272 272 272 274 274 275 275 279 281 284 278 282 286 285 286 287 288 290 291 292 293 291 290 294 295
270 273 273 273 273 273 273 274 273 278 280 280 281 282 282 283 287 289 290 290 292 291 290 292 293 294 297
272 277 277 273 273 273 273 275 277 278 280 279 280 282 284 286 287 290 292 290 289 289 289 292 295 299 300
273 274 271 271 271 272 273 273 275 277 277 279 281 281 285 287 289 290 289 288 289 290 292 295 298 299 302
268 266 269 268 268 270 272 274 276 275 277 282 284 282 285 288 289 289 287 288 290 292 294 296 299 300 302
262 264 265 265 266 271 274 274 276 279 282 283 282 281 283 287 290 288 287 289 291 293 294 297 300 301 301